Sturgis, MI

12:50 PM EST on December 12, 2019 (GMT -0500)
Kirsch Municipal

Weather History for KIRS - October, 2019

Change the Weather History Date:

Saturday, October 5, 2019

  Actual Average (KHAI) Record (KHAI)
Temperature  
Mean Temperature 53 °F -  
Max Temperature 64 °F 65 °F 86 °F (1951)
Min Temperature 42 °F 43 °F 27 °F (1965)
Degree Days  
Heating Degree Days 12    
Growing Degree Days 3 (Base 50)    
Moisture  
Dew Point 44 °F    
Average Humidity 70    
Maximum Humidity 89    
Minimum Humidity 44    
Precipitation  
Precipitation 0.12 in - - ()
Sea Level Pressure  
Sea Level Pressure 30.15 in    
Wind  
Wind Speed 6 mph ()    
Max Wind Speed 13 mph    
Max Gust Speed 18 mph    
Visibility 7.9 miles    
Events Rain    
Averages and records for this station are not official NWS values.
T = Trace of Precipitation, MM = Missing Value Source: Averaged Metar Reports

Daily Weather History Graph

Daily Weather History Graph

Search for Another Location

Airport or City:

Astronomy

Oct. 05, 2019 Rise Set
Actual Time 7:42 AM EDT 7:17 PM EDT
Civil Twilight 7:14 AM EDT 7:44 PM EDT
Nautical Twilight 6:42 AM EDT 8:16 PM EDT
Astronomical Twilight 6:10 AM EDT 8:49 PM EDT
Moon 3:12 PM EDT (10/5) No Moon Set
Length of Visible Light 12h 29m
Length of Day
11h 34m
Waxing Crescent, 50% of the Moon is Illuminated
Oct 5
Waxing Crescent
Oct 5
First Quarter
Oct 13
Full
Oct 21
Last Quarter
Oct 27
New

Hourly Weather History & Observations

Time (EDT) Temp. Windchill Dew Point Humidity Pressure Visibility Wind Dir Wind Speed Gust Speed Precip Events Conditions
12:18 AM 46.6 °F - 43.3 °F 88% 30.35 in 10.0 mi East 5.8 mph - N/A   Clear
12:36 AM 46.9 °F - 43.7 °F 88% 30.34 in 10.0 mi East 4.6 mph - N/A   Clear
12:55 AM 46.8 °F - 43.7 °F 89% 30.34 in 10.0 mi ENE 5.8 mph - N/A   Clear
1:15 AM 46.8 °F - 43.5 °F 88% 30.32 in 10.0 mi ENE 5.8 mph - N/A   Clear
1:57 AM 46.9 °F - 43.5 °F 88% 30.31 in 1.2 mi East 6.9 mph - N/A   Unknown
2:15 AM 46.8 °F - 42.8 °F 86% 30.31 in 0.5 mi East 6.9 mph - N/A   Unknown
2:35 AM 46.4 °F 43.5 °F 41.7 °F 84% 30.31 in 0.5 mi East 5.8 mph - N/A   Unknown
2:55 AM 45.9 °F 44.6 °F 41.0 °F 83% 30.31 in 1.2 mi East 3.5 mph - N/A   Haze
3:00 AM 45.5 °F 43.2 °F 40.8 °F 84% 30.31 in 1.8 mi East 4.6 mph - N/A   Haze
3:18 AM 45.5 °F 42.5 °F 40.5 °F 83% 30.30 in 0.8 mi East 5.8 mph - N/A   Unknown
3:36 AM 45.5 °F 42.5 °F 40.3 °F 82% 30.29 in 0.8 mi East 5.8 mph - N/A   Unknown
3:55 AM 45.5 °F 41.8 °F 40.3 °F 82% 30.28 in 0.5 mi East 6.9 mph - N/A   Unknown
3:56 AM 45.5 °F 41.8 °F 40.3 °F 82% 30.28 in 0.5 mi East 6.9 mph - N/A   Unknown
4:15 AM 45.5 °F 40.8 °F 40.5 °F 83% 30.28 in 0.5 mi East 9.2 mph - N/A   Unknown
4:16 AM 45.5 °F 40.8 °F 40.5 °F 83% 30.28 in 0.5 mi East 9.2 mph - N/A   Unknown
4:39 AM 45.5 °F 41.3 °F 40.5 °F 83% 30.27 in 0.5 mi East 8.1 mph - N/A   Unknown
4:56 AM 45.1 °F 42.0 °F 40.6 °F 84% 30.27 in 0.5 mi East 5.8 mph - N/A   Unknown
5:15 AM 44.8 °F 42.4 °F 40.6 °F 85% 30.27 in 0.8 mi East 4.6 mph - N/A   Mist
5:16 AM 44.8 °F 42.4 °F 40.6 °F 85% 30.27 in 0.8 mi East 4.6 mph - N/A   Mist
5:35 AM 43.9 °F 41.3 °F 40.3 °F 87% 30.28 in 7.0 mi NE 4.6 mph - N/A   Clear
5:36 AM 43.9 °F 41.3 °F 40.3 °F 87% 30.28 in 10.0 mi NE 4.6 mph - N/A   Clear
5:55 AM 43.7 °F 41.1 °F 40.1 °F 87% 30.28 in 10.0 mi ENE 4.6 mph - N/A   Clear
6:00 AM 43.5 °F 40.9 °F 40.1 °F 88% 30.27 in 10.0 mi ENE 4.6 mph - N/A   Clear
6:18 AM 43.2 °F 40.5 °F 40.1 °F 89% 30.28 in 10.0 mi NE 4.6 mph - N/A   Clear
6:36 AM 42.8 °F 40.1 °F 39.7 °F 89% 30.27 in 10.0 mi ENE 4.6 mph - N/A   Clear
6:55 AM 42.8 °F 41.1 °F 39.7 °F 89% 30.26 in 10.0 mi ENE 3.5 mph - N/A   Clear
6:56 AM 42.8 °F 40.1 °F 39.7 °F 89% 30.26 in 10.0 mi ENE 4.6 mph - N/A   Clear
7:15 AM 42.8 °F 40.1 °F 39.6 °F 88% 30.26 in 10.0 mi ENE 4.6 mph - N/A   Clear
7:39 AM 42.8 °F 40.1 °F 39.7 °F 89% 30.25 in 10.0 mi ENE 4.6 mph - N/A   Clear
7:57 AM 43.2 °F 41.5 °F 40.1 °F 89% 30.25 in 7.0 mi ENE 3.5 mph - N/A   Clear
8:15 AM 43.3 °F 41.7 °F 40.1 °F 88% 30.25 in 5.0 mi East 3.5 mph - N/A   Clear
8:35 AM 45.3 °F 44.0 °F 42.1 °F 88% 30.25 in 2.5 mi East 3.5 mph - N/A   Clear
8:55 AM 47.3 °F - 42.8 °F 84% 30.24 in 1.0 mi East 5.8 mph - N/A   Mist
9:18 AM 49.1 °F - 43.9 °F 82% 30.23 in 0.5 mi ESE 6.9 mph - N/A   Haze
9:36 AM 50.7 °F - 43.9 °F 77% 30.23 in 0.5 mi SE 5.8 mph - N/A   Haze
9:55 AM 52.3 °F - 44.4 °F 74% 30.21 in 10.0 mi SE 6.9 mph - N/A   Clear
10:15 AM 54.5 °F - 44.2 °F 68% 30.21 in 10.0 mi SE 10.4 mph - N/A   Clear
10:39 AM 54.9 °F - 42.8 °F 64% 30.19 in 10.0 mi SE 11.5 mph 18.4 mph N/A   Clear
10:57 AM 55.0 °F - 41.9 °F 61% 30.19 in 10.0 mi ESE 10.4 mph - N/A   Clear
11:15 AM 56.5 °F - 42.1 °F 59% 30.18 in 10.0 mi ESE 12.7 mph - N/A   Clear
11:35 AM 57.4 °F - 41.9 °F 56% 30.18 in 10.0 mi SE 9.2 mph - N/A   Scattered Clouds
11:55 AM 57.2 °F - 41.7 °F 56% 30.17 in 10.0 mi SE 9.2 mph - N/A   Scattered Clouds
11:59 AM 57.6 °F - 41.9 °F 56% 30.17 in 10.0 mi SE 10.4 mph - N/A   Scattered Clouds
12:18 PM 58.5 °F - 41.9 °F 54% 30.16 in 10.0 mi SE 8.1 mph - N/A   Clear
12:36 PM 58.8 °F - 42.3 °F 54% 30.16 in 10.0 mi SE 8.1 mph - N/A   Clear
12:55 PM 60.3 °F - 42.1 °F 51% 30.16 in 10.0 mi SE 8.1 mph - N/A   Clear
1:15 PM 60.3 °F - 41.4 °F 50% 30.15 in 10.0 mi SSE 5.8 mph - N/A   Clear
1:16 PM 60.3 °F - 41.4 °F 50% 30.15 in 10.0 mi SSE 5.8 mph - N/A   Clear
1:39 PM 59.9 °F - 40.5 °F 49% 30.12 in 10.0 mi ESE 9.2 mph - N/A   Clear
1:57 PM 61.3 °F - 40.6 °F 47% 30.11 in 10.0 mi SE 9.2 mph - N/A   Clear
2:15 PM 61.5 °F - 40.8 °F 47% 30.10 in 10.0 mi SSE 6.9 mph - N/A   Clear
2:35 PM 62.6 °F - 41.2 °F 45% 30.08 in 10.0 mi SE 6.9 mph 16.1 mph N/A   Clear
2:36 PM 62.6 °F - 41.2 °F 45% 30.08 in 10.0 mi ESE 6.9 mph 16.1 mph N/A   Clear
2:55 PM 63.0 °F - 41.7 °F 46% 30.07 in 10.0 mi SSE 11.5 mph 16.1 mph N/A   Clear
3:00 PM 62.8 °F - 41.0 °F 45% 30.07 in 10.0 mi SSE 12.7 mph 16.1 mph N/A   Clear
3:18 PM 63.7 °F - 41.2 °F 44% 30.06 in 10.0 mi SE 6.9 mph - N/A   Clear
3:36 PM 63.5 °F - 41.0 °F 44% 30.06 in 10.0 mi SE 10.4 mph - N/A   Clear
3:55 PM 64.4 °F - 41.9 °F 44% 30.05 in 10.0 mi SE 8.1 mph 16.1 mph N/A   Clear
4:15 PM 62.2 °F - 42.6 °F 49% 30.04 in 10.0 mi SSE 6.9 mph - N/A   Clear
4:16 PM 62.2 °F - 43.0 °F 49% 30.04 in 10.0 mi SSE 8.1 mph - N/A   Clear
4:39 PM 62.8 °F - 42.4 °F 47% 30.04 in 10.0 mi South 5.8 mph - N/A   Clear
4:57 PM 62.6 °F - 42.8 °F 48% 30.03 in 10.0 mi SE 8.1 mph - N/A   Clear
5:15 PM 62.2 °F - 43.2 °F 50% 30.03 in 10.0 mi SSE 11.5 mph - N/A   Clear
5:16 PM 62.2 °F - 43.3 °F 50% 30.03 in 10.0 mi SSE 10.4 mph - N/A   Clear
5:35 PM 61.7 °F - 43.5 °F 51% 30.02 in 10.0 mi SSE 8.1 mph - N/A   Clear
5:36 PM 61.7 °F - 43.5 °F 51% 30.02 in 10.0 mi SSE 6.9 mph - N/A   Clear
5:55 PM 61.7 °F - 43.7 °F 52% 30.02 in 10.0 mi SSE 8.1 mph - N/A   Clear
6:18 PM 61.7 °F - 44.1 °F 52% 30.01 in 10.0 mi SE 8.1 mph - N/A   Scattered Clouds
6:36 PM 61.7 °F - 44.2 °F 53% 30.01 in 10.0 mi SE 6.9 mph - N/A   Scattered Clouds
6:55 PM 61.2 °F - 44.6 °F 54% 30.00 in 10.0 mi SE 8.1 mph - N/A   Scattered Clouds
7:15 PM 61.2 °F - 45.0 °F 55% 30.02 in 10.0 mi Calm Calm - N/A   Overcast
7:39 PM 60.1 °F - 47.1 °F 62% 30.04 in 10.0 mi Calm Calm - N/A   Overcast
7:57 PM 59.4 °F - 48.6 °F 67% 30.04 in 10.0 mi NNE 3.5 mph - N/A   Overcast
8:15 PM 59.0 °F - 49.5 °F 71% 30.05 in 10.0 mi NNW 3.5 mph - N/A   Overcast
8:35 PM 59.0 °F - 48.9 °F 69% 30.06 in 10.0 mi North 4.6 mph - N/A   Overcast
8:36 PM 59.0 °F - 48.9 °F 69% 30.06 in 10.0 mi North 4.6 mph - N/A   Overcast
8:55 PM 58.3 °F - 48.9 °F 71% 30.05 in 10.0 mi Calm Calm - N/A Rain Light Rain
9:00 PM 58.1 °F - 49.3 °F 72% 30.04 in 10.0 mi East 3.5 mph - N/A Rain Light Rain
9:17 PM 57.6 °F - 51.1 °F 79% 30.04 in 10.0 mi ESE 4.6 mph - N/A Rain Rain
9:36 PM 56.3 °F - 51.8 °F 85% 30.01 in 7.0 mi ESE 8.1 mph - 0.06 in Rain Rain
9:55 PM 56.3 °F - 51.3 °F 83% 30.01 in 10.0 mi SE 6.9 mph - 0.07 in Rain Light Rain
9:56 PM 56.3 °F - 51.4 °F 84% 30.01 in 10.0 mi SE 8.1 mph - 0.07 in Rain Light Rain
10:15 PM 55.4 °F - 51.1 °F 85% 29.95 in 10.0 mi ESE 9.2 mph - 0.01 in Rain Light Rain
10:39 PM 56.1 °F - 50.9 °F 83% 29.94 in 10.0 mi SE 6.9 mph - 0.01 in Rain Light Rain
10:57 PM 56.3 °F - 51.1 °F 83% 29.92 in 10.0 mi SE 10.4 mph - 0.01 in Rain Light Rain
11:15 PM 56.5 °F - 50.9 °F 82% 29.94 in 10.0 mi SSE 4.6 mph - N/A   Overcast
11:16 PM 56.5 °F - 50.9 °F 82% 29.94 in 10.0 mi South 4.6 mph - N/A   Overcast
11:35 PM 56.8 °F - 51.1 °F 81% 29.95 in 10.0 mi SSW 4.6 mph - N/A Rain Rain
11:55 PM 56.1 °F - 52.2 °F 87% 29.94 in 10.0 mi SSE 8.1 mph - 0.04 in Rain Light Rain